GW4085 Weather Reports


Display with metric or nautical units.
time (UTC)temp
F
wind
direction
speed
MPH
gust
MPH
rain 1hr
in
rain 24hr
in
rain mn
in
humidity
%
barometer
mb
20260510130226 63 347 5.0 7.0 0.00 0.00 0.00 75 1017.7
20260510125722 62 30 3.0 6.0 0.00 0.00 0.00 76 1017.6
20260510125218 62 153 1.0 5.0 0.00 0.00 0.00 76 1017.4
20260510124715 62 85 1.0 5.0 0.00 0.00 0.00 77 1017.3
20260510124213 62 139 0.0 1.0 0.00 0.00 0.00 78 1017.1
20260510123707 61 331 1.0 1.0 0.00 0.00 0.00 78 1017.0
20260510123204 61 347 3.0 5.0 0.00 0.00 0.00 79 1016.8
20260510122700 60 53 0.0 2.0 0.00 0.00 0.00 80 1016.9
20260510122157 60 14 1.0 2.0 0.00 0.00 0.00 80 1016.9
20260510121653 60 50 2.0 2.0 0.00 0.00 0.00 81 1016.8
20260510121150 60 116 0.0 2.0 0.00 0.00 0.00 81 1016.5
20260510120648 60 27 0.0 3.0 0.00 0.00 0.00 82 1016.3
20260510120143 60 350 2.0 3.0 0.00 0.00 0.00 83 1016.5
20260510115640 60 106 0.0 2.0 0.00 0.00 0.00 83 1016.6
20260510115138 59 12 3.0 3.0 0.00 0.00 0.00 83 1016.2
20260510114633 59 91 0.0 2.0 0.00 0.00 0.00 83 1016.4
20260510114130 59 66 0.0 1.0 0.00 0.00 0.00 83 1016.4
20260510113625 59 50 0.0 0.0 0.00 0.00 0.00 82 1016.0
20260510113123 59 10 1.0 3.0 0.00 0.00 0.00 82 1015.8
20260510112619 59 98 0.0 0.0 0.00 0.00 0.00 82 1015.8
20260510112115 59 53 0.0 1.0 0.00 0.00 0.00 82 1015.8
20260510111612 59 155 0.0 0.0 0.00 0.00 0.00 81 1015.8
20260510111102 59 167 0.0 0.0 0.00 0.00 0.00 81 1015.6
20260510110558 59 128 0.0 0.0 0.00 0.00 0.00 81 1015.4
20260510110054 59 122 0.0 1.0 0.00 0.00 0.00 81 1015.4
20260510105550 59 146 0.0 1.0 0.00 0.00 0.00 82 1015.4
20260510105045 59 71 0.0 1.0 0.00 0.00 0.00 83 1015.3
20260510104542 58 151 0.0 1.0 0.00 0.00 0.00 85 1015.4
20260510104038 58 155 0.0 0.0 0.00 0.00 0.00 87 1015.5
20260510103536 57 86 0.0 1.0 0.00 0.00 0.00 88 1015.4
20260510103032 56 147 0.0 0.0 0.00 0.00 0.00 90 1015.2
20260510102527 56 148 0.0 0.0 0.00 0.00 0.00 91 1015.4
20260510102024 56 163 0.0 0.0 0.00 0.00 0.00 91 1015.5
20260510101521 56 164 0.0 0.0 0.00 0.00 0.00 91 1015.2
20260510101020 56 165 0.0 0.0 0.00 0.00 0.00 90 1015.2
20260510100516 56 164 0.0 0.0 0.00 0.00 0.00 90 1014.9
20260510100013 57 164 0.0 0.0 0.00 0.00 0.00 90 1014.8
20260510095508 57 172 0.0 0.0 0.00 0.00 0.00 90 1015.1
20260510095008 57 173 0.0 0.0 0.00 0.00 0.00 90 1014.7
20260510094502 57 173 0.0 0.0 0.00 0.00 0.00 89 1014.9
20260510093958 57 171 0.0 0.0 0.00 0.00 0.00 89 1015.2
20260510093454 57 171 0.0 0.0 0.00 0.00 0.00 89 1014.8
20260510092951 57 171 0.0 0.0 0.00 0.00 0.00 88 1014.7
20260510092448 57 171 0.0 0.0 0.00 0.00 0.00 88 1014.7
20260510091942 57 172 0.0 0.0 0.00 0.00 0.00 87 1014.6
20260510091440 57 172 0.0 0.0 0.00 0.00 0.00 87 1014.3
20260510090936 58 172 0.0 0.0 0.00 0.00 0.00 86 1014.6
20260510090433 58 172 0.0 0.0 0.00 0.00 0.00 86 1014.3
20260510085928 59 171 0.0 0.0 0.00 0.00 0.00 85 1014.2
20260510085424 59 151 0.0 0.0 0.00 0.00 0.00 82 1014.4
20260510084920 59 125 0.0 1.0 0.00 0.00 0.00 83 1014.1
20260510084417 58 161 0.0 0.0 0.00 0.00 0.00 85 1014.2
20260510083914 59 164 0.0 0.0 0.00 0.00 0.00 84 1014.0
20260510083410 59 153 0.0 0.0 0.00 0.00 0.00 83 1014.2
20260510082905 59 177 0.0 0.0 0.00 0.00 0.00 83 1013.9
20260510082404 59 148 0.0 0.0 0.00 0.00 0.00 83 1013.9
20260510081901 59 148 0.0 0.0 0.00 0.00 0.00 83 1013.8
20260510081357 59 174 0.0 0.0 0.00 0.00 0.00 83 1013.9
20260510080854 59 179 0.0 0.0 0.00 0.00 0.00 82 1013.9
20260510080349 59 114 0.0 0.0 0.00 0.00 0.00 83 1014.0
20260510075846 59 181 0.0 0.0 0.00 0.00 0.00 83 1014.1
20260510075344 59 162 0.0 0.0 0.00 0.00 0.00 82 1014.3
20260510074840 59 172 0.0 0.0 0.00 0.00 0.00 82 1014.4
20260510074337 59 173 0.0 0.0 0.00 0.00 0.00 82 1014.1
20260510073834 59 163 0.0 0.0 0.00 0.00 0.00 80 1014.1
20260510073329 59 152 0.0 0.0 0.00 0.00 0.00 80 1014.3
20260510072825 59 137 0.0 0.0 0.00 0.00 0.00 80 1014.1
20260510072322 59 159 0.0 0.0 0.00 0.00 0.00 81 1014.0
20260510071818 59 176 0.0 0.0 0.00 0.00 0.00 81 1013.8
20260510071314 59 176 0.0 0.0 0.00 0.00 0.00 79 1013.8
20260510070814 60 176 0.0 0.0 0.00 0.00 0.00 79 1014.1
20260510070305 60 175 0.0 0.0 0.00 0.00 0.00 78 1014.1
20260510065804 60 167 0.0 0.0 0.00 0.00 0.00 78 1013.9
20260510065301 60 168 0.0 0.0 0.00 0.00 0.00 77 1013.8
20260510064758 61 168 0.0 0.0 0.00 0.00 0.00 76 1013.8
20260510064256 61 167 0.0 0.0 0.00 0.00 0.00 75 1013.9
20260510063751 61 165 0.0 0.0 0.00 0.00 0.00 74 1013.9
20260510063247 62 165 0.0 0.0 0.00 0.00 0.00 72 1014.0
20260510062744 63 165 0.0 0.0 0.00 0.00 0.00 71 1014.1
20260510062240 64 165 0.0 0.0 0.00 0.00 0.00 69 1013.9
20260510061736 64 165 0.0 0.0 0.00 0.00 0.00 69 1014.0
20260510061233 64 71 1.0 2.0 0.00 0.00 0.00 68 1013.8
20260510060729 63 55 0.0 1.0 0.00 0.00 0.00 71 1014.0
20260510060226 63 69 0.0 1.0 0.00 0.00 0.00 72 1014.0
20260510055723 63 173 0.0 0.0 0.00 0.00 0.00 72 1013.7
20260510055221 64 173 0.0 0.0 0.00 0.00 0.00 71 1013.7
20260510054721 64 173 0.0 0.0 0.00 0.00 0.00 70 1013.8
20260510054218 64 153 0.0 0.0 0.00 0.00 0.00 69 1013.8
20260510053717 64 181 0.0 0.0 0.00 0.00 0.00 69 1013.7
20260510053214 65 178 0.0 0.0 0.00 0.00 0.00 67 1013.6
20260510052709 65 189 0.0 0.0 0.00 0.00 0.00 68 1013.5
20260510052206 65 180 0.0 1.0 0.00 0.00 0.00 68 1013.7
20260510051701 64 184 0.0 1.0 0.00 0.00 0.00 69 1013.6
20260510051158 64 181 0.0 0.0 0.00 0.00 0.00 71 1013.7
20260510050656 63 165 0.0 0.0 0.00 0.00 0.00 72 1013.6
20260510050153 62 181 0.0 0.0 0.00 0.00 0.00 74 1013.7
20260510045649 62 180 0.0 0.0 0.00 0.01 0.01 79 1013.6
20260510045146 62 179 0.0 0.0 0.00 0.01 0.01 78 1013.3
20260510044642 62 179 0.0 0.0 0.00 0.01 0.01 75 1013.3
20260510044140 62 179 0.0 0.0 0.00 0.01 0.01 75 1013.4
20260510043635 62 179 0.0 0.0 0.00 0.01 0.01 75 1013.3
20260510043132 62 179 0.0 0.0 0.00 0.01 0.01 75 1013.6
20260510042630 62 182 0.0 0.0 0.00 0.01 0.01 74 1013.2
20260510042125 61 188 0.0 0.0 0.00 0.01 0.01 74 1013.5
20260510041623 61 172 0.0 0.0 0.00 0.01 0.01 78 1013.6
20260510041120 61 171 0.0 0.0 0.00 0.01 0.01 78 1013.2
20260510040617 61 171 0.0 0.0 0.00 0.01 0.01 78 1013.4
20260510040113 61 154 0.0 0.0 0.00 0.01 0.01 77 1013.1
20260510035609 61 170 0.0 0.0 0.00 0.01 0.01 77 1013.1
20260510035104 61 162 0.0 0.0 0.00 0.01 0.01 76 1013.0
20260510034602 61 162 0.0 0.0 0.00 0.01 0.01 75 1012.9
20260510034058 62 162 0.0 0.0 0.00 0.01 0.01 75 1013.0
20260510033554 62 159 0.0 0.0 0.00 0.01 0.01 75 1013.2
20260510033052 62 181 0.0 0.0 0.00 0.01 0.01 76 1013.1
20260510032548 62 156 0.0 0.0 0.00 0.01 0.01 76 1012.8
20260510032044 62 155 0.0 0.0 0.00 0.01 0.01 75 1012.7
20260510031538 62 155 0.0 0.0 0.00 0.01 0.01 75 1012.7
20260510031035 62 155 0.0 0.0 0.00 0.01 0.01 74 1012.8
20260510030530 63 155 0.0 0.0 0.00 0.01 0.01 72 1012.6
20260510030029 63 156 0.0 0.0 0.00 0.01 0.01 72 1012.8
20260510025525 63 156 0.0 0.0 0.00 0.01 0.01 72 1012.6
20260510025023 63 155 0.0 0.0 0.00 0.01 0.01 72 1012.7
20260510024519 64 155 0.0 0.0 0.00 0.01 0.01 72 1012.5
20260510024015 64 154 0.0 0.0 0.00 0.01 0.01 70 1012.5
20260510023511 65 154 0.0 0.0 0.00 0.01 0.01 69 1012.2
20260510023010 64 154 0.0 0.0 0.00 0.01 0.01 69 1012.1
20260510022508 64 172 0.0 0.0 0.00 0.01 0.01 68 1012.0
20260510022008 65 173 0.0 0.0 0.00 0.01 0.01 68 1011.9
20260510021505 65 172 0.0 0.0 0.00 0.01 0.01 67 1011.7
20260510021003 66 172 0.0 0.0 0.00 0.01 0.01 67 1011.9
20260510020456 66 172 0.0 0.0 0.00 0.01 0.01 66 1011.5
20260510015952 67 173 0.0 0.0 0.00 0.01 0.01 65 1011.4
20260510015448 67 172 0.0 0.0 0.00 0.01 0.01 63 1011.3
20260510014943 67 172 0.0 0.0 0.00 0.01 0.01 64 1011.3
20260510014441 68 172 0.0 0.0 0.00 0.01 0.01 62 1011.2
20260510013938 68 172 0.0 0.0 0.00 0.01 0.01 61 1011.0
20260510013432 69 172 0.0 0.0 0.00 0.01 0.01 58 1010.9
20260510012928 69 172 0.0 0.0 0.00 0.01 0.01 58 1010.9
20260510012423 70 172 0.0 0.0 0.00 0.01 0.01 57 1010.8
20260510011918 71 173 0.0 0.0 0.00 0.01 0.01 54 1011.0
20260510011413 72 173 0.0 0.0 0.00 0.01 0.01 52 1010.7
20260510010909 73 173 0.0 0.0 0.00 0.01 0.01 49 1010.9
20260510010407 73 173 0.0 0.0 0.00 0.01 0.01 48 1010.6
20260510005903 74 173 0.0 0.0 0.00 0.01 0.01 46 1010.7
20260510005400 75 185 0.0 0.0 0.00 0.01 0.01 45 1010.6
20260510004857 75 175 0.0 0.0 0.00 0.01 0.01 44 1010.8
20260510004355 76 179 0.0 0.0 0.00 0.01 0.01 43 1010.4
20260510003852 76 178 0.0 0.0 0.00 0.01 0.01 43 1010.4
20260510003349 77 180 0.0 0.0 0.00 0.01 0.01 42 1010.5
20260510002848 77 176 0.0 0.0 0.00 0.01 0.01 41 1010.3
20260510002345 77 176 0.0 0.0 0.00 0.01 0.01 41 1010.5
20260510001842 78 181 0.0 0.0 0.00 0.01 0.01 39 1010.3
20260510001340 78 165 0.0 0.0 0.00 0.01 0.01 39 1010.2
20260510000836 78 163 0.0 0.0 0.00 0.01 0.01 36 1010.4
20260510000333 78 179 0.0 1.0 0.00 0.01 0.01 40 1010.5
20260509235830 78 163 0.0 1.0 0.00 0.01 0.01 39 1010.5
20260509235326 78 156 2.0 3.0 0.00 0.01 0.01 40 1010.3
20260509234822 79 165 0.0 2.0 0.00 0.01 0.01 37 1010.4
20260509234319 80 176 0.0 1.0 0.00 0.01 0.01 37 1010.5
20260509233818 80 182 0.0 1.0 0.00 0.01 0.01 37 1010.5
20260509233315 81 187 0.0 3.0 0.00 0.01 0.01 36 1010.7
20260509232810 80 219 0.0 2.0 0.00 0.01 0.01 34 1010.5
20260509232308 80 222 0.0 1.0 0.00 0.01 0.01 36 1010.5
20260509231804 81 191 0.0 3.0 0.00 0.01 0.01 36 1010.5
20260509231301 81 177 1.0 3.0 0.00 0.01 0.01 34 1010.5
20260509230759 82 153 1.0 3.0 0.00 0.01 0.01 33 1010.4
20260509230256 82 172 0.0 2.0 0.00 0.01 0.01 35 1010.4
20260509225750 82 235 1.0 3.0 0.00 0.01 0.01 34 1010.5
20260509225247 82 176 0.0 2.0 0.00 0.01 0.01 31 1010.4
20260509224743 82 188 0.0 1.0 0.00 0.01 0.01 31 1010.4
20260509224241 82 183 1.0 3.0 0.00 0.01 0.01 34 1010.4
20260509223737 83 187 0.0 0.0 0.00 0.01 0.01 30 1010.5
20260509223234 83 187 0.0 1.0 0.00 0.01 0.01 33 1010.3
20260509222731 85 190 0.0 0.0 0.00 0.01 0.01 30 1010.5
20260509222226 83 191 0.0 0.0 0.00 0.01 0.01 33 1010.4
20260509221722 83 201 1.0 1.0 0.00 0.01 0.01 35 1010.7
20260509221219 83 179 0.0 1.0 0.00 0.01 0.01 34 1010.3
20260509220714 83 169 0.0 1.0 0.00 0.01 0.01 31 1010.6
20260509220211 83 173 0.0 2.0 0.00 0.01 0.01 34 1010.6
20260509215707 83 176 0.0 5.0 0.00 0.01 0.01 35 1010.6
20260509215203 83 167 2.0 7.0 0.00 0.01 0.01 37 1010.7
20260509214701 83 244 0.0 0.0 0.00 0.01 0.01 32 1010.8
20260509214157 83 108 2.0 6.0 0.00 0.01 0.01 37 1010.6
20260509213655 83 171 0.0 3.0 0.00 0.01 0.01 36 1010.7
20260509213150 84 120 3.0 6.0 0.00 0.01 0.01 35 1010.4
20260509212648 84 177 0.0 0.0 0.00 0.01 0.01 33 1010.4
20260509212145 83 229 1.0 2.0 0.00 0.01 0.01 35 1010.7
20260509211640 84 234 0.0 1.0 0.00 0.01 0.01 35 1010.4
20260509211137 84 207 0.0 5.0 0.00 0.01 0.01 36 1010.5
20260509210634 84 237 0.0 1.0 0.00 0.01 0.01 35 1010.7
20260509210131 83 191 0.0 3.0 0.00 0.01 0.01 38 1010.9
20260509205626 83 186 1.0 3.0 0.00 0.01 0.01 36 1010.8
20260509205120 82 257 0.0 3.0 0.00 0.01 0.01 38 1010.7
20260509204617 83 192 0.0 2.0 0.00 0.01 0.01 40 1011.1
20260509204114 82 175 1.0 6.0 0.00 0.01 0.01 35 1011.0
20260509203610 82 170 4.0 7.0 0.00 0.01 0.01 36 1010.8
20260509203109 82 196 4.0 5.0 0.00 0.01 0.01 36 1010.8
20260509202608 82 175 3.0 9.0 0.00 0.01 0.01 38 1011.0
20260509202105 83 192 1.0 2.0 0.00 0.01 0.01 33 1011.2
20260509201604 82 202 0.0 1.0 0.00 0.01 0.01 36 1010.9
20260509201103 83 225 1.0 5.0 0.00 0.01 0.01 40 1011.1
20260509200602 83 154 1.0 6.0 0.00 0.01 0.01 33 1011.2
20260509200059 83 217 0.0 3.0 0.00 0.01 0.01 33 1011.2
20260509195554 82 248 0.0 2.0 0.00 0.01 0.01 39 1011.3
20260509195049 83 192 1.0 2.0 0.00 0.01 0.01 37 1011.2
20260509194549 83 173 1.0 2.0 0.00 0.01 0.01 39 1011.3
20260509194047 82 173 4.0 5.0 0.00 0.01 0.01 42 1011.5
20260509193542 83 298 1.0 3.0 0.00 0.01 0.01 35 1011.4
20260509193039 83 171 3.0 6.0 0.00 0.01 0.01 38 1011.7
20260509192535 82 317 0.0 2.0 0.00 0.01 0.01 37 1011.6
20260509192030 82 190 1.0 6.0 0.00 0.01 0.01 38 1011.5
20260509191525 82 156 2.0 2.0 0.00 0.01 0.01 40 1011.4
20260509191016 82 3 1.0 2.0 0.00 0.01 0.01 35 1011.5
20260509190513 82 252 1.0 2.0 0.00 0.01 0.01 34 1011.6
20260509190011 83 281 1.0 2.0 0.00 0.01 0.01 35 1011.5
20260509185508 82 190 0.0 2.0 0.00 0.01 0.01 37 1011.5
20260509185004 82 186 1.0 3.0 0.00 0.01 0.01 34 1011.6
20260509184503 83 169 1.0 3.0 0.00 0.01 0.01 33 1011.6
20260509183959 83 200 0.0 1.0 0.00 0.01 0.01 36 1011.7
20260509183459 82 111 0.0 5.0 0.00 0.01 0.01 37 1011.5
20260509182955 81 146 0.0 5.0 0.00 0.01 0.01 36 1011.4
20260509182451 81 159 0.0 2.0 0.00 0.01 0.01 35 1011.4
20260509181949 82 0 3.0 5.0 0.00 0.01 0.01 39 1011.7
20260509181447 82 182 3.0 3.0 0.00 0.01 0.01 35 1011.5
20260509180945 81 189 0.0 2.0 0.00 0.01 0.01 37 1011.6
20260509180440 81 185 2.0 5.0 0.00 0.01 0.01 34 1011.6
20260509175937 81 127 1.0 5.0 0.00 0.01 0.01 36 1011.7
20260509175433 81 319 2.0 3.0 0.00 0.01 0.01 35 1011.7
20260509174929 81 62 4.0 6.0 0.00 0.01 0.01 36 1011.4
20260509174425 82 114 1.0 1.0 0.00 0.01 0.01 40 1011.7
20260509173921 81 169 0.0 1.0 0.00 0.01 0.01 38 1011.9
20260509173420 81 279 1.0 5.0 0.00 0.01 0.01 39 1011.7
20260509172918 81 269 1.0 6.0 0.00 0.01 0.01 40 1012.0
20260509172414 80 192 0.0 2.0 0.00 0.01 0.01 39 1011.7
20260509171910 79 285 2.0 2.0 0.00 0.01 0.01 40 1011.9
20260509171406 80 1 0.0 2.0 0.00 0.01 0.01 43 1012.1
20260509170903 81 178 0.0 2.0 0.00 0.01 0.01 48 1012.1
20260509170359 80 183 0.0 2.0 0.00 0.01 0.01 53 1012.1
20260509165854 80 184 0.0 5.0 0.00 0.01 0.01 49 1012.2
20260509165348 80 197 4.0 6.0 0.00 0.01 0.01 46 1012.1
20260509164839 80 120 1.0 3.0 0.00 0.01 0.01 50 1012.1
20260509164335 79 343 2.0 3.0 0.00 0.01 0.01 46 1012.0
20260509163832 79 178 0.0 1.0 0.00 0.01 0.01 46 1012.1
20260509163328 79 34 1.0 3.0 0.00 0.01 0.01 48 1012.1
20260509162827 79 188 0.0 2.0 0.00 0.01 0.01 47 1012.0
20260509162320 79 195 2.0 3.0 0.00 0.01 0.01 47 1012.1
20260509161817 78 259 2.0 3.0 0.00 0.01 0.01 47 1012.0
20260509161314 78 177 1.0 3.0 0.00 0.01 0.01 47 1011.9
20260509160809 78 292 1.0 2.0 0.00 0.01 0.01 47 1012.1
20260509160305 78 209 0.0 1.0 0.00 0.01 0.01 52 1012.1
20260509155800 78 175 0.0 1.0 0.00 0.01 0.01 53 1011.7
20260509155257 77 172 0.0 1.0 0.00 0.01 0.01 51 1011.9
20260509154753 76 50 1.0 2.0 0.00 0.01 0.01 57 1011.9
20260509154250 77 170 0.0 3.0 0.00 0.01 0.01 53 1012.1
20260509153747 76 206 0.0 3.0 0.00 0.01 0.01 53 1011.7
20260509153243 76 171 1.0 2.0 0.00 0.01 0.01 54 1011.9
20260509152740 76 180 1.0 2.0 0.00 0.01 0.01 60 1011.7
20260509152236 75 148 1.0 2.0 0.00 0.01 0.01 57 1011.9
20260509151733 75 168 0.0 3.0 0.00 0.01 0.01 60 1012.0
20260509151230 75 134 0.0 0.0 0.00 0.01 0.01 60 1012.1
20260509150728 73 161 0.0 3.0 0.00 0.01 0.01 65 1012.2
20260509150226 72 144 0.0 1.0 0.00 0.01 0.01 62 1012.0
20260509145723 71 177 0.0 2.0 0.00 0.01 0.01 65 1012.1
20260509145217 71 125 1.0 3.0 0.00 0.01 0.01 62 1012.0
20260509144714 72 193 1.0 3.0 0.05 0.01 0.01 66 1011.9
20260509144211 72 302 3.0 3.0 0.05 0.01 0.01 62 1011.7
20260509143708 71 194 0.0 2.0 0.00 0.00 0.00 65 1011.6
20260509143205 71 151 0.0 1.0 0.00 0.00 0.00 66 1012.0
20260509142701 71 158 0.0 1.0 0.00 0.00 0.00 67 1011.9
20260509142158 71 174 0.0 1.0 0.00 0.00 0.00 68 1011.6
20260509141653 71 147 1.0 3.0 0.00 0.00 0.00 68 1011.7
20260509141150 70 156 0.0 2.0 0.00 0.00 0.00 72 1011.3
20260509140647 70 167 0.0 1.0 0.00 0.00 0.00 74 1011.7
20260509140145 68 162 0.0 2.0 0.00 0.00 0.00 75 1011.6
20260509135642 68 158 1.0 1.0 0.00 0.00 0.00 75 1011.2
20260509135140 68 115 3.0 3.0 0.00 0.00 0.00 77 1011.4
20260509134636 67 155 0.0 1.0 0.00 0.00 0.00 81 1011.5
20260509134134 66 28 2.0 3.0 0.00 0.00 0.00 80 1011.6
20260509133631 65 158 0.0 1.0 0.00 0.00 0.00 83 1011.4
20260509133128 64 190 0.0 1.0 0.00 0.00 0.00 85 1011.6
20260509132626 64 162 2.0 5.0 0.00 0.00 0.00 86 1011.5
20260509132124 64 325 0.0 1.0 0.00 0.00 0.00 87 1011.3
20260509131620 63 209 0.0 2.0 0.00 0.00 0.00 89 1011.1
20260509131117 62 139 0.0 1.0 0.00 0.00 0.00 90 1011.5